Milwaukee, WI

9:08 AM CDT on March 30, 2017 (GMT -0500)
Gen Mitchell International

Weather History for KMKE - December, 2012

Change the Weather History Date:

Thursday, December 13, 2012

  Actual Average Record
Temperature  
Mean Temperature 40 °F 27 °F  
Max Temperature 48 °F 33 °F 60 °F (2015)
Min Temperature 32 °F 21 °F -14 °F (1903)
Degree Days  
Heating Degree Days 25 38  
Month to date heating degree days 326 466  
Since 1 July heating degree days 1698 1831  
Cooling Degree Days 0 0  
Month to date cooling degree days 0 0  
Year to date cooling degree days 1041 641  
Moisture  
Dew Point 25 °F    
Average Humidity 56    
Maximum Humidity 75    
Minimum Humidity 37    
Precipitation  
Precipitation 0.00 in 0.06 in 1.59 in (1928)
Month to date precipitation 0.90 0.97  
Year to date precipitation 26.32 33.69  
Snow  
Snow 0.00 in 0.40 in 10.80 in (1885)
Month to date snowfall T 4.0  
Since 1 July snowfall T 6.7  
Snow Depth 0.00 in    
Sea Level Pressure  
Sea Level Pressure 30.16 in    
Wind  
Wind Speed 11 mph (SW)    
Max Wind Speed 26 mph    
Max Gust Speed 32 mph    
Visibility 10 miles    
Events      
T = Trace of Precipitation, MM = Missing Value Source: NWS Daily Summary

Daily Weather History Graph

Daily Weather History Graph

Search for Another Location

Airport or City:

Trip Planner

Search our weather history database for the weather conditions in past years. The results will help you decide how hot, cold, wet, or windy it might be!

Date:

Astronomy

Dec. 13, 2012 Rise Set
Actual Time 7:14 AM CST 4:17 PM CST
Civil Twilight 6:42 AM CST 4:49 PM CST
Nautical Twilight 6:06 AM CST 5:25 PM CST
Astronomical Twilight 5:32 AM CST 6:00 PM CST
Moon 7:22 AM CST (12/13) 5:00 PM CST (12/13)
Length of Visible Light 10h 07m
Length of Day
9h 02m
New Moon, 0% of the Moon is Illuminated
Dec 13
New Moon
Dec 19
First Quarter
Dec 28
Full
Jan 4
Last Quarter
Jan 11
New

Hourly Weather History & Observations

Time (CST) Temp. Windchill Dew Point Humidity Pressure Visibility Wind Dir Wind Speed Gust Speed Precip Events Conditions
12:52 AM 36.0 °F 27.5 °F 26.1 °F 67% 30.22 in 10.0 mi SW 12.7 mph 20.7 mph N/A   Partly Cloudy
1:52 AM 36.0 °F 26.7 °F 25.0 °F 64% 30.24 in 10.0 mi SW 15.0 mph - N/A   Clear
2:52 AM 35.1 °F 26.4 °F 25.0 °F 67% 30.23 in 10.0 mi SW 12.7 mph - N/A   Clear
3:52 AM 34.0 °F 26.0 °F 24.1 °F 67% 30.22 in 10.0 mi SSW 10.4 mph - N/A   Clear
4:52 AM 34.0 °F 25.5 °F 23.0 °F 64% 30.22 in 10.0 mi SSW 11.5 mph - N/A   Clear
5:52 AM 33.1 °F 25.5 °F 23.0 °F 66% 30.22 in 10.0 mi SSW 9.2 mph - N/A   Clear
6:52 AM 32.0 °F 23.6 °F 23.0 °F 69% 30.21 in 10.0 mi SSW 10.4 mph - N/A   Mostly Cloudy
7:52 AM 33.1 °F 24.4 °F 24.1 °F 70% 30.19 in 10.0 mi SSW 11.5 mph - N/A   Scattered Clouds
8:52 AM 36.0 °F 27.5 °F 24.1 °F 62% 30.19 in 10.0 mi South 12.7 mph - N/A   Scattered Clouds
9:52 AM 39.9 °F 32.1 °F 23.0 °F 51% 30.18 in 10.0 mi SSW 13.8 mph 20.7 mph N/A   Partly Cloudy
10:52 AM 43.0 °F 35.4 °F 23.0 °F 45% 30.15 in 10.0 mi SW 16.1 mph 21.9 mph N/A   Mostly Cloudy
11:52 AM 46.0 °F 38.5 °F 21.9 °F 39% 30.13 in 10.0 mi SW 19.6 mph 25.3 mph N/A   Scattered Clouds
12:52 PM 46.9 °F - 23.0 °F 39% 30.11 in 10.0 mi SW 18.4 mph 32.2 mph N/A   Partly Cloudy
1:52 PM 46.9 °F - 25.0 °F 42% 30.08 in 10.0 mi SW 18.4 mph 28.8 mph N/A   Scattered Clouds
2:52 PM 46.0 °F 38.8 °F 26.1 °F 46% 30.07 in 10.0 mi SW 18.4 mph 25.3 mph N/A   Mostly Cloudy
3:52 PM 45.0 °F 39.7 °F 26.1 °F 48% 30.08 in 10.0 mi SW 10.4 mph - N/A   Scattered Clouds
6:52 PM 39.0 °F 35.7 °F 28.0 °F 65% 30.13 in 10.0 mi SW 4.6 mph - N/A   Mostly Cloudy
7:52 PM 36.0 °F 31.1 °F 27.0 °F 70% 30.13 in 10.0 mi SW 5.8 mph - N/A   Scattered Clouds
8:52 PM 36.0 °F 32.1 °F 28.0 °F 73% 30.13 in 10.0 mi SSW 4.6 mph - N/A   Scattered Clouds
9:52 PM 35.1 °F 30.1 °F 28.0 °F 76% 30.14 in 10.0 mi SW 5.8 mph - N/A   Scattered Clouds
10:52 PM 34.0 °F 31.0 °F 27.0 °F 75% 30.14 in 10.0 mi SW 3.5 mph - N/A   Partly Cloudy
11:52 PM 35.6 °F - 26.6 °F 70% 30.13 in 10.0 mi Calm Calm - N/A   Partly Cloudy